Location: Aciu?a
(46.2833°N, 22.4500°E)
Time: 04:06:01
(UTC+00:00)

CENTAUR R/B - Pass Details

Date: 25 October 2021
Orbit: 728 x 1459 km, 63.4° (Epoch: 26 November)

Event Time Altitude Azimuth Distance (km) Brightness Sun altitude
Rises 19:04:31 0° 320° (NW) 4,095 6.5 -37.7°
Reaches altitude 10° 19:07:11 10° 324° (NW) 3,223 5.8 -38.1°
Enters shadow 19:12:59 49° 353° (N) 1,690 3.7 -39.0°
